CW8466 Weather Reports


time (UTC)temp
C
wind
direction
speed
KPH
gust
KPH
rain 1hr
cm
rain 24hr
cm
rain mn
cm
humidity
%
barometer
mb
20260506113352 24 142 0.0 0.0 0.00 0.00 0.00 100 1008.1
20260506111841 24 142 0.0 0.0 0.00 0.00 0.00 100 1007.9
20260506110331 24 143 0.0 0.0 0.00 0.00 0.00 100 1008.0
20260506104900 24 142 0.0 0.0 0.00 0.00 0.00 100 1007.9
20260506103328 24 147 0.0 0.0 0.00 0.00 0.00 100 1007.7
20260506101907 24 148 0.0 0.0 0.00 0.00 0.00 100 1007.7
20260506100338 24 147 0.0 0.0 0.00 0.00 0.00 100 1007.9
20260506094830 24 147 0.0 0.0 0.00 0.00 0.00 100 1007.7
20260506093343 24 147 0.0 0.0 0.00 0.00 0.00 100 1007.8
20260506091840 24 147 0.0 0.0 0.00 0.00 0.00 100 1007.7
20260506090338 24 147 0.0 0.0 0.00 0.00 0.00 100 1007.6
20260506084856 24 146 0.0 0.0 0.00 0.00 0.00 100 1007.7
20260506083330 24 147 0.0 0.0 0.00 0.00 0.00 100 1007.6
20260506081830 24 148 0.0 0.0 0.00 0.00 0.00 100 1007.7
20260506080403 24 154 0.0 0.0 0.00 0.00 0.00 100 1007.6
20260506073340 24 141 0.0 0.0 0.00 0.00 0.00 99 1007.9
20260506071852 25 128 0.0 0.0 0.00 0.00 0.00 98 1008.0
20260506070341 25 151 0.0 0.0 0.00 0.00 0.00 98 1008.2
20260506061850 25 185 0.0 0.0 0.00 0.00 0.00 97 1008.7
20260506060408 25 164 0.0 0.0 0.00 0.00 0.00 97 1008.8
20260506050333 25 184 0.0 0.0 0.00 0.00 0.00 97 1008.7
20260506044904 25 164 0.0 0.0 0.00 0.00 0.00 97 1008.7
20260506043404 25 168 0.0 0.0 0.00 0.00 0.00 97 1008.5
20260506041846 25 174 0.0 0.0 0.00 0.00 0.00 97 1008.1
20260506040343 25 160 0.0 0.0 0.00 0.00 0.00 97 1008.1
20260506034841 25 172 0.0 0.0 0.00 0.00 0.00 97 1008.1
20260506033338 25 152 0.0 0.0 0.00 0.00 0.00 96 1007.9
20260506031829 25 162 0.0 1.6 0.00 0.00 0.00 96 1007.9
20260506030338 25 167 0.0 0.0 0.00 0.00 0.00 96 1007.8
20260506024842 25 171 0.0 0.0 0.00 0.00 0.00 95 1007.8
20260506023331 25 148 0.0 0.0 0.00 0.00 0.00 96 1007.6
20260506021840 25 155 0.0 0.0 0.00 0.00 0.00 96 1007.4
20260506020346 25 173 0.0 0.0 0.00 0.00 0.00 95 1007.1
20260506014832 25 150 0.0 0.0 0.00 0.00 0.00 95 1006.8
20260506013357 25 169 0.0 0.0 0.00 0.00 0.00 94 1006.7
20260506011908 26 170 0.0 1.6 0.00 0.00 0.00 93 1006.6
20260506010334 26 167 0.0 25.7 0.00 0.00 0.00 92 1006.3
20260506004843 26 147 11.3 20.9 0.00 0.00 0.00 91 1006.2
20260506003344 26 171 8.0 25.7 0.00 0.00 0.00 90 1006.0
20260506001836 26 155 16.1 24.1 0.00 0.00 0.00 89 1005.9
20260506000330 27 181 16.1 20.9 0.00 0.00 0.00 88 1005.9
20260505234840 27 180 16.1 22.5 0.00 0.00 0.00 87 1005.8
20260505233341 27 171 17.7 25.7 0.00 0.00 0.00 86 1005.8
20260505231832 28 191 14.5 24.1 0.00 0.00 0.00 86 1005.8
20260505230343 27 165 14.5 27.4 0.00 0.00 0.00 86 1005.9
20260505224836 28 146 12.9 27.4 0.00 0.00 0.00 85 1005.9
20260505223359 28 165 14.5 25.7 0.00 0.00 0.00 85 1006.1
20260505221845 28 192 6.4 17.7 0.00 0.00 0.00 84 1006.2
20260505220337 28 167 14.5 22.5 0.00 0.00 0.00 83 1006.3
20260505214828 28 155 16.1 22.5 0.00 0.00 0.00 83 1006.2
20260505213340 28 166 16.1 19.3 0.00 0.00 0.00 82 1006.4
20260505211827 29 182 16.1 22.5 0.00 0.00 0.00 82 1006.7
20260505210339 28 155 14.5 24.1 0.00 0.00 0.00 84 1006.9
20260505204902 28 170 17.7 25.7 0.00 0.00 0.00 83 1006.9
20260505203356 29 148 12.9 24.1 0.00 0.00 0.00 81 1007.1
20260505201844 29 169 0.0 0.0 0.00 0.00 0.00 82 1007.3
20260505200333 29 214 0.0 0.0 0.00 0.00 0.00 80 1007.3
20260505194843 29 168 0.0 0.0 0.00 0.00 0.00 83 1007.5
20260505193336 28 163 0.0 0.0 0.00 0.00 0.00 83 1007.7
20260505191842 28 163 0.0 0.0 0.00 0.00 0.00 84 1008.0
20260505190334 28 162 0.0 0.0 0.00 0.00 0.00 84 1008.0
20260505184845 28 187 0.0 0.0 0.00 0.00 0.00 86 1008.2
20260505183357 28 200 0.0 0.0 0.00 0.00 0.00 84 1008.4
20260505181847 27 181 0.0 0.0 0.00 0.00 0.00 85 1008.5
20260505180402 27 189 0.0 0.0 0.00 0.00 0.00 85 1008.6
20260505174828 27 165 0.0 0.0 0.00 0.00 0.00 86 1008.7
20260505173336 27 211 0.0 0.0 0.00 0.00 0.00 85 1008.7
20260505171843 27 199 0.0 1.6 0.00 0.00 0.00 86 1008.7
20260505170328 27 178 0.0 1.6 0.00 0.00 0.00 88 1008.9
20260505164856 26 219 0.0 0.0 0.00 0.00 0.00 90 1009.2
20260505163346 26 216 0.0 0.0 0.00 0.00 0.00 92 1009.2
20260505161837 25 222 0.0 0.0 0.00 0.00 0.00 95 1009.2
20260505160329 25 214 0.0 0.0 0.00 0.00 0.00 96 1009.3
20260505151826 23 188 0.0 0.0 0.00 0.00 0.00 100 1009.1
20260505150333 23 200 0.0 0.0 0.00 0.00 0.00 100 1009.2
20260505140345 22 171 0.0 0.0 0.00 0.00 0.00 100 1008.9
20260505124829 22 171 0.0 0.0 0.00 0.00 0.00 100 1008.8
20260505123344 22 169 0.0 0.0 0.00 0.00 0.00 100 1008.5
20260505121834 21 169 0.0 0.0 0.00 0.00 0.00 100 1008.4
20260505120332 21 168 0.0 0.0 0.00 0.00 0.00 100 1008.1
20260505114838 21 165 0.0 0.0 0.00 0.00 0.00 100 1008.1